Wetterdaten: Samstag, 25.10.2014
Datum Zeit Temperatur Luftfeuchte Luftdruck Regen Wind Richtung Richtung Taupunkt Windchill Windben
25.10.2014 00:00 0,4 C 94 % 1020,9 hPa 0,0 l/m 0,5 km/h (0 Bft) N-NW 337 -0,5 C 0,0 C 0,0 km/h (0 Bft)
25.10.2014 00:05 0,7 C 94 % 1020,9 hPa 0,0 l/m 0,3 km/h (0 Bft) NW 315 -0,2 C 0,1 C 0,0 km/h (0 Bft)
25.10.2014 00:10 0,4 C 94 % 1020,9 hPa 0,0 l/m 0,2 km/h (0 Bft) W-NW 292 -0,5 C 0,0 C 0,0 km/h (0 Bft)
25.10.2014 00:15 0,3 C 94 % 1020,9 hPa 0,0 l/m 0,0 km/h (0 Bft) W-SW 247 -0,5 C -0,3 C 0,0 km/h (0 Bft)
25.10.2014 00:20 0,3 C 94 % 1020,9 hPa 0,0 l/m 0,0 km/h (0 Bft) W-SW 247 -0,5 C -0,4 C 0,0 km/h (0 Bft)
25.10.2014 00:25 0,1 C 94 % 1020,9 hPa 0,0 l/m 0,0 km/h (0 Bft) S-SW 202 -0,7 C -0,6 C 0,0 km/h (0 Bft)
25.10.2014 00:30 0,4 C 94 % 1020,9 hPa 0,0 l/m 0,0 km/h (0 Bft) S 180 -0,5 C -0,7 C 0,0 km/h (0 Bft)
25.10.2014 00:35 0,1 C 94 % 1020,9 hPa 0,0 l/m 0,0 km/h (0 Bft) S 180 -0,7 C -0,6 C 0,0 km/h (0 Bft)
25.10.2014 00:40 0,4 C 94 % 1020,9 hPa 0,0 l/m 0,0 km/h (0 Bft) S-SO 157 -0,5 C -0,6 C 0,0 km/h (0 Bft)
25.10.2014 00:45 0,4 C 94 % 1020,9 hPa 0,0 l/m 0,0 km/h (0 Bft) S 180 -0,5 C -0,5 C 0,0 km/h (0 Bft)
25.10.2014 00:50 0,2 C 94 % 1020,9 hPa 0,0 l/m 0,0 km/h (0 Bft) S 180 -0,6 C -0,6 C 0,0 km/h (0 Bft)
25.10.2014 00:55 0,0 C 94 % 1020,9 hPa 0,0 l/m 0,0 km/h (0 Bft) W-SW 247 -0,8 C -0,9 C 0,0 km/h (0 Bft)
25.10.2014 01:00 -0,1 C 94 % 1020,9 hPa 0,0 l/m 0,0 km/h (0 Bft) S 180 -0,9 C -1,0 C 0,0 km/h (0 Bft)
25.10.2014 01:05 -0,3 C 94 % 1020,9 hPa 0,0 l/m 0,0 km/h (0 Bft) S 180 -1,1 C -1,2 C 0,0 km/h (0 Bft)
25.10.2014 01:10 -0,4 C 94 % 1020,9 hPa 0,0 l/m 0,0 km/h (0 Bft) S-SO 157 -1,2 C -1,2 C 0,0 km/h (0 Bft)
25.10.2014 01:15 -0,4 C 94 % 1020,9 hPa 0,0 l/m 0,0 km/h (0 Bft) S-SO 157 -1,2 C -1,3 C 0,0 km/h (0 Bft)
25.10.2014 01:20 -0,3 C 94 % 1020,8 hPa 0,0 l/m 0,0 km/h (0 Bft) O-NO 67 -1,1 C -1,2 C 0,0 km/h (0 Bft)
25.10.2014 01:25 -0,1 C 94 % 1020,8 hPa 0,0 l/m 0,2 km/h (0 Bft) N-NW 337 -0,9 C -1,0 C 1,9 km/h (1 Bft)
25.10.2014 01:30 -0,1 C 94 % 1020,8 hPa 0,0 l/m 0,3 km/h (0 Bft) W 270 -0,9 C -0,8 C 3,1 km/h (1 Bft)
25.10.2014 01:35 0,3 C 94 % 1020,8 hPa 0,0 l/m 1,8 km/h (1 Bft) S 180 -0,5 C -0,2 C 5,3 km/h (1 Bft)
25.10.2014 01:40 0,3 C 94 % 1020,8 hPa 0,0 l/m 2,1 km/h (1 Bft) W-SW 247 -0,5 C 0,1 C 0,0 km/h (0 Bft)
25.10.2014 01:45 0,2 C 95 % 1020,8 hPa 0,0 l/m 1,0 km/h (0 Bft) NO 45 -0,5 C 0,1 C 1,6 km/h (1 Bft)
25.10.2014 01:50 0,3 C 95 % 1020,8 hPa 0,0 l/m 0,5 km/h (0 Bft) O-NO 67 -0,4 C -0,1 C 0,0 km/h (0 Bft)
25.10.2014 01:55 0,0 C 95 % 1020,8 hPa 0,0 l/m 0,2 km/h (0 Bft) N-NO 22 -0,7 C -0,5 C 0,0 km/h (0 Bft)
25.10.2014 02:00 -0,1 C 95 % 1020,9 hPa 0,0 l/m 0,0 km/h (0 Bft) O-SO 112 -0,8 C -0,8 C 0,0 km/h (0 Bft)
25.10.2014 02:05 0,3 C 95 % 1020,9 hPa 0,0 l/m 0,2 km/h (0 Bft) NO 45 -0,4 C -0,9 C 0,0 km/h (0 Bft)
25.10.2014 02:08 0,1 C 95 % 1020,9 hPa 0,0 l/m 0,3 km/h (0 Bft) N-NW 337 -0,6 C -0,9 C 0,0 km/h (0 Bft)
25.10.2014 02:10 0,1 C 95 % 1020,9 hPa 0,0 l/m 0,3 km/h (0 Bft) N-NW 337 -0,6 C -0,9 C 0,0 km/h (0 Bft)
25.10.2014 02:15 -0,1 C 95 % 1020,9 hPa 0,0 l/m 0,2 km/h (0 Bft) NO 45 -0,8 C -0,9 C 0,0 km/h (0 Bft)
25.10.2014 02:20 -0,2 C 95 % 1020,7 hPa 0,0 l/m 0,0 km/h (0 Bft) SO 135 -0,9 C -1,1 C 0,0 km/h (0 Bft)
25.10.2014 02:25 0,3 C 95 % 1020,7 hPa 0,0 l/m 0,3 km/h (0 Bft) SO 135 -0,4 C -1,0 C 0,0 km/h (0 Bft)
25.10.2014 02:30 -0,1 C 95 % 1020,7 hPa 0,0 l/m 0,5 km/h (0 Bft) N-NW 337 -0,8 C -1,0 C 2,3 km/h (1 Bft)
25.10.2014 02:35 -0,4 C 95 % 1020,7 hPa 0,0 l/m 0,2 km/h (0 Bft) NW 315 -1,1 C -1,2 C 0,0 km/h (0 Bft)
25.10.2014 02:40 -0,6 C 95 % 1020,8 hPa 0,0 l/m 0,2 km/h (0 Bft) O-NO 67 -1,3 C -1,3 C 2,6 km/h (1 Bft)
25.10.2014 02:45 -0,6 C 95 % 1020,8 hPa 0,0 l/m 0,2 km/h (0 Bft) SW 225 -1,3 C -1,5 C 1,9 km/h (1 Bft)
25.10.2014 02:50 -0,3 C 95 % 1020,8 hPa 0,0 l/m 0,3 km/h (0 Bft) NW 315 -1,0 C -1,4 C 0,0 km/h (0 Bft)
25.10.2014 02:55 -0,4 C 95 % 1020,8 hPa 0,0 l/m 0,2 km/h (0 Bft) W-SW 247 -1,1 C -1,2 C 0,0 km/h (0 Bft)
25.10.2014 03:00 -0,4 C 95 % 1020,3 hPa 0,0 l/m 0,0 km/h (0 Bft) W 270 -1,1 C -1,3 C 0,0 km/h (0 Bft)
25.10.2014 03:05 -0,4 C 95 % 1020,3 hPa 0,0 l/m 0,0 km/h (0 Bft) W-SW 247 -1,1 C -1,4 C 0,0 km/h (0 Bft)
25.10.2014 03:10 -0,1 C 95 % 1020,3 hPa 0,0 l/m 0,0 km/h (0 Bft) W-SW 247 -0,8 C -1,5 C 0,0 km/h (0 Bft)
25.10.2014 03:15 0,0 C 95 % 1020,3 hPa 0,0 l/m 0,0 km/h (0 Bft) NW 315 -0,7 C -1,4 C 0,0 km/h (0 Bft)
25.10.2014 03:20 0,1 C 95 % 1020,4 hPa 0,0 l/m 0,0 km/h (0 Bft) SW 225 -0,6 C -1,4 C 0,0 km/h (0 Bft)
25.10.2014 03:25 0,0 C 96 % 1020,4 hPa 0,0 l/m 0,0 km/h (0 Bft) SW 225 -0,6 C -1,4 C 0,0 km/h (0 Bft)
25.10.2014 03:30 -0,1 C 95 % 1020,4 hPa 0,0 l/m 0,0 km/h (0 Bft) SW 225 -0,8 C -1,4 C 0,0 km/h (0 Bft)
25.10.2014 03:35 -0,2 C 95 % 1020,4 hPa 0,0 l/m 0,0 km/h (0 Bft) SW 225 -0,9 C -1,6 C 0,0 km/h (0 Bft)
25.10.2014 03:40 -0,3 C 95 % 1020,4 hPa 0,0 l/m 0,0 km/h (0 Bft) SW 225 -1,0 C -1,8 C 0,0 km/h (0 Bft)
25.10.2014 03:45 -0,5 C 95 % 1020,4 hPa 0,0 l/m 0,0 km/h (0 Bft) W-SW 247 -1,2 C -1,9 C 0,0 km/h (0 Bft)
25.10.2014 03:50 -0,5 C 96 % 1020,4 hPa 0,0 l/m 0,0 km/h (0 Bft) W-NW 292 -1,1 C -2,0 C 0,0 km/h (0 Bft)
25.10.2014 03:55 -0,6 C 96 % 1020,4 hPa 0,0 l/m 0,0 km/h (0 Bft) SW 225 -1,2 C -2,0 C 0,0 km/h (0 Bft)
25.10.2014 04:00 -0,6 C 96 % 1020,2 hPa 0,0 l/m 0,0 km/h (0 Bft) N-NO 22 -1,2 C -1,9 C 0,0 km/h (0 Bft)
25.10.2014 04:05 -0,5 C 96 % 1020,2 hPa 0,0 l/m 0,0 km/h (0 Bft) O 90 -1,1 C -1,9 C 0,0 km/h (0 Bft)
25.10.2014 04:10 -0,6 C 96 % 1020,2 hPa 0,0 l/m 0,0 km/h (0 Bft) O 90 -1,2 C -1,8 C 0,0 km/h (0 Bft)
25.10.2014 04:15 -0,7 C 96 % 1020,2 hPa 0,0 l/m 0,0 km/h (0 Bft) O 90 -1,3 C -1,8 C 0,0 km/h (0 Bft)
25.10.2014 04:20 -0,7 C 96 % 1020,3 hPa 0,0 l/m 0,0 km/h (0 Bft) O-NO 67 -1,3 C -1,7 C 0,0 km/h (0 Bft)
25.10.2014 04:25 -0,8 C 96 % 1020,3 hPa 0,0 l/m 0,0 km/h (0 Bft) O-SO 112 -1,4 C -1,6 C 0,0 km/h (0 Bft)
25.10.2014 04:30 -0,7 C 96 % 1020,3 hPa 0,0 l/m 0,0 km/h (0 Bft) NO 45 -1,3 C -1,6 C 0,0 km/h (0 Bft)
25.10.2014 04:35 -0,9 C 96 % 1020,3 hPa 0,0 l/m 0,0 km/h (0 Bft) O 90 -1,5 C -1,6 C 0,0 km/h (0 Bft)
25.10.2014 04:40 -0,8 C 96 % 1020,2 hPa 0,0 l/m 0,0 km/h (0 Bft) NO 45 -1,4 C -1,6 C 0,0 km/h (0 Bft)
25.10.2014 04:45 -0,8 C 96 % 1020,2 hPa 0,0 l/m 0,0 km/h (0 Bft) N-NW 337 -1,4 C -1,7 C 0,0 km/h (0 Bft)
25.10.2014 04:50 -0,8 C 96 % 1020,2 hPa 0,0 l/m 0,2 km/h (0 Bft) S 180 -1,4 C -1,7 C 0,0 km/h (0 Bft)
25.10.2014 04:55 -0,9 C 96 % 1020,2 hPa 0,0 l/m 0,2 km/h (0 Bft) O-NO 67 -1,5 C -1,7 C 0,0 km/h (0 Bft)
25.10.2014 05:00 -0,8 C 96 % 1020,1 hPa 0,0 l/m 0,0 km/h (0 Bft) SO 135 -1,4 C -1,7 C 0,0 km/h (0 Bft)
25.10.2014 05:05 -0,8 C 96 % 1020,1 hPa 0,0 l/m 0,2 km/h (0 Bft) O-SO 112 -1,4 C -1,6 C 0,0 km/h (0 Bft)
25.10.2014 05:08 -0,7 C 96 % 1020,1 hPa 0,0 l/m 0,0 km/h (0 Bft) NW 315 -1,3 C -1,6 C 0,0 km/h (0 Bft)
25.10.2014 05:10 -0,7 C 96 % 1020,1 hPa 0,0 l/m 0,0 km/h (0 Bft) NW 315 -1,3 C -1,6 C 0,0 km/h (0 Bft)
25.10.2014 05:15 -0,5 C 96 % 1020,1 hPa 0,0 l/m 0,0 km/h (0 Bft) N 360 -1,1 C -1,5 C 2,4 km/h (1 Bft)
25.10.2014 05:20 -0,6 C 96 % 1020,1 hPa 0,0 l/m 0,2 km/h (0 Bft) N-NO 22 -1,2 C -1,4 C 0,0 km/h (0 Bft)
25.10.2014 05:25 -0,6 C 96 % 1020,1 hPa 0,0 l/m 0,3 km/h (0 Bft) W-NW 292 -1,2 C -1,3 C 0,0 km/h (0 Bft)
25.10.2014 05:30 -0,4 C 96 % 1020,1 hPa 0,0 l/m 0,5 km/h (0 Bft) W 270 -1,0 C -1,2 C 0,0 km/h (0 Bft)
25.10.2014 05:35 -0,3 C 96 % 1020,1 hPa 0,0 l/m 0,3 km/h (0 Bft) S 180 -0,9 C -1,2 C 0,0 km/h (0 Bft)
25.10.2014 05:40 -0,4 C 96 % 1020,0 hPa 0,0 l/m 0,0 km/h (0 Bft) N-NO 22 -1,0 C -1,1 C 0,0 km/h (0 Bft)
25.10.2014 05:45 -0,3 C 96 % 1020,0 hPa 0,0 l/m 0,2 km/h (0 Bft) W-SW 247 -0,9 C -1,0 C 0,0 km/h (0 Bft)
25.10.2014 05:50 -0,5 C 96 % 1020,0 hPa 0,0 l/m 0,2 km/h (0 Bft) NW 315 -1,1 C -1,0 C 0,0 km/h (0 Bft)
25.10.2014 05:55 -0,4 C 96 % 1020,0 hPa 0,0 l/m 0,0 km/h (0 Bft) N-NW 337 -1,0 C -1,1 C 0,0 km/h (0 Bft)
25.10.2014 06:00 -0,2 C 96 % 1020,1 hPa 0,0 l/m 0,0 km/h (0 Bft) N-NW 337 -0,8 C -1,1 C 0,0 km/h (0 Bft)
25.10.2014 06:05 -0,3 C 96 % 1020,1 hPa 0,0 l/m 0,0 km/h (0 Bft) W-NW 292 -0,9 C -1,1 C 0,0 km/h (0 Bft)
25.10.2014 06:10 -0,1 C 96 % 1020,1 hPa 0,0 l/m 0,0 km/h (0 Bft) S 180 -0,7 C -1,0 C 0,0 km/h (0 Bft)
25.10.2014 06:15 -0,2 C 96 % 1020,1 hPa 0,0 l/m 0,0 km/h (0 Bft) S-SO 157 -0,8 C -1,0 C 0,0 km/h (0 Bft)
25.10.2014 06:20 -0,3 C 96 % 1020,1 hPa 0,0 l/m 0,0 km/h (0 Bft) S-SO 157 -0,9 C -1,0 C 0,0 km/h (0 Bft)
25.10.2014 06:25 -0,3 C 96 % 1020,1 hPa 0,0 l/m 0,0 km/h (0 Bft) S-SO 157 -0,9 C -1,2 C 0,0 km/h (0 Bft)
25.10.2014 06:30 -0,2 C 97 % 1020,1 hPa 0,0 l/m 0,0 km/h (0 Bft) S-SO 157 -0,6 C -1,2 C 0,0 km/h (0 Bft)
25.10.2014 06:35 -0,4 C 97 % 1020,1 hPa 0,0 l/m 0,0 km/h (0 Bft) W-SW 247 -0,8 C -1,3 C 0,0 km/h (0 Bft)
25.10.2014 06:40 -0,5 C 97 % 1020,4 hPa 0,0 l/m 0,0 km/h (0 Bft) W-SW 247 -0,9 C -1,3 C 0,0 km/h (0 Bft)
25.10.2014 06:45 -0,4 C 97 % 1020,4 hPa 0,0 l/m 0,0 km/h (0 Bft) O 90 -0,8 C -1,4 C 0,0 km/h (0 Bft)
25.10.2014 06:50 -0,6 C 97 % 1020,4 hPa 0,0 l/m 0,0 km/h (0 Bft) O 90 -1,0 C -1,4 C 0,0 km/h (0 Bft)
25.10.2014 06:55 -0,6 C 97 % 1020,4 hPa 0,0 l/m 0,0 km/h (0 Bft) S-SO 157 -1,0 C -1,6 C 0,0 km/h (0 Bft)
25.10.2014 07:00 -0,6 C 97 % 1020,4 hPa 0,0 l/m 0,0 km/h (0 Bft) SO 135 -1,0 C -1,6 C 0,0 km/h (0 Bft)
25.10.2014 07:05 -0,8 C 97 % 1020,4 hPa 0,0 l/m 0,0 km/h (0 Bft) SO 135 -1,2 C -1,6 C 0,0 km/h (0 Bft)
25.10.2014 07:10 -0,9 C 97 % 1020,4 hPa 0,0 l/m 0,0 km/h (0 Bft) SO 135 -1,3 C -1,8 C 0,0 km/h (0 Bft)
25.10.2014 07:15 -0,9 C 97 % 1020,4 hPa 0,0 l/m 0,0 km/h (0 Bft) SO 135 -1,3 C -1,8 C 0,0 km/h (0 Bft)
25.10.2014 07:20 -0,8 C 97 % 1020,2 hPa 0,0 l/m 0,0 km/h (0 Bft) SO 135 -1,2 C -1,8 C 0,0 km/h (0 Bft)
25.10.2014 07:25 -1,0 C 97 % 1020,2 hPa 0,0 l/m 0,0 km/h (0 Bft) SO 135 -1,4 C -1,6 C 0,0 km/h (0 Bft)
25.10.2014 07:30 -0,8 C 97 % 1020,2 hPa 0,0 l/m 0,0 km/h (0 Bft) SO 135 -1,2 C -1,6 C 0,0 km/h (0 Bft)
25.10.2014 07:35 -0,9 C 97 % 1020,2 hPa 0,0 l/m 0,0 km/h (0 Bft) SO 135 -1,3 C -1,5 C 0,0 km/h (0 Bft)
25.10.2014 07:40 -0,5 C 97 % 1020,4 hPa 0,0 l/m 0,0 km/h (0 Bft) O-SO 112 -0,9 C -1,5 C 0,0 km/h (0 Bft)
25.10.2014 07:45 -0,7 C 97 % 1020,4 hPa 0,0 l/m 0,0 km/h (0 Bft) O-SO 112 -1,1 C -1,5 C 0,0 km/h (0 Bft)
25.10.2014 07:50 -0,8 C 97 % 1020,4 hPa 0,0 l/m 0,0 km/h (0 Bft) SO 135 -1,2 C -1,6 C 0,0 km/h (0 Bft)
25.10.2014 07:55 -0,8 C 97 % 1020,4 hPa 0,0 l/m 0,0 km/h (0 Bft) O-SO 112 -1,2 C -1,7 C 0,0 km/h (0 Bft)
25.10.2014 08:00 -0,7 C 97 % 1020,6 hPa 0,0 l/m 0,0 km/h (0 Bft) O-SO 112 -1,1 C -1,7 C 0,0 km/h (0 Bft)
25.10.2014 08:05 -0,4 C 97 % 1020,6 hPa 0,0 l/m 0,2 km/h (0 Bft) O-SO 112 -0,8 C -1,6 C 0,0 km/h (0 Bft)
25.10.2014 08:08 -0,3 C 97 % 1020,6 hPa 0,0 l/m 0,2 km/h (0 Bft) SO 135 -0,7 C -1,3 C 0,0 km/h (0 Bft)
25.10.2014 08:10 -0,3 C 97 % 1020,6 hPa 0,0 l/m 0,2 km/h (0 Bft) SO 135 -0,7 C -1,3 C 0,0 km/h (0 Bft)
25.10.2014 08:15 -0,1 C 97 % 1020,6 hPa 0,0 l/m 0,2 km/h (0 Bft) NO 45 -0,5 C -1,0 C 0,0 km/h (0 Bft)
25.10.2014 08:20 -0,2 C 97 % 1020,9 hPa 0,0 l/m 0,2 km/h (0 Bft) NO 45 -0,6 C -0,8 C 0,0 km/h (0 Bft)
25.10.2014 08:25 -0,1 C 97 % 1020,9 hPa 0,0 l/m 0,2 km/h (0 Bft) NO 45 -0,5 C -0,6 C 0,0 km/h (0 Bft)
25.10.2014 08:30 -0,1 C 97 % 1020,9 hPa 0,0 l/m 0,0 km/h (0 Bft) NO 45 -0,5 C -0,6 C 0,0 km/h (0 Bft)
25.10.2014 08:35 0,1 C 97 % 1020,9 hPa 0,0 l/m 0,0 km/h (0 Bft) O-NO 67 -0,3 C -0,3 C 0,0 km/h (0 Bft)
25.10.2014 08:40 0,2 C 97 % 1020,9 hPa 0,0 l/m 0,0 km/h (0 Bft) O-NO 67 -0,2 C 0,1 C 0,0 km/h (0 Bft)
25.10.2014 08:45 0,2 C 97 % 1020,9 hPa 0,0 l/m 0,0 km/h (0 Bft) O-SO 112 -0,2 C 0,5 C 0,0 km/h (0 Bft)
25.10.2014 08:50 0,2 C 97 % 1020,9 hPa 0,0 l/m 0,0 km/h (0 Bft) O-SO 112 -0,2 C 1,0 C 0,0 km/h (0 Bft)
25.10.2014 08:55 0,4 C 97 % 1020,9 hPa 0,0 l/m 0,0 km/h (0 Bft) O-SO 112 -0,0 C 1,4 C 0,0 km/h (0 Bft)
25.10.2014 09:00 0,7 C 97 % 1020,9 hPa 0,0 l/m 0,0 km/h (0 Bft) O-SO 112 0,3 C 1,7 C 0,0 km/h (0 Bft)
25.10.2014 09:05 1,3 C 97 % 1020,9 hPa 0,0 l/m 0,0 km/h (0 Bft) SO 135 0,9 C 2,0 C 0,0 km/h (0 Bft)
25.10.2014 09:10 1,5 C 97 % 1020,9 hPa 0,0 l/m 0,0 km/h (0 Bft) SO 135 1,1 C 2,2 C 0,0 km/h (0 Bft)
25.10.2014 09:15 1,9 C 97 % 1020,9 hPa 0,0 l/m 0,0 km/h (0 Bft) SO 135 1,5 C 2,6 C 0,0 km/h (0 Bft)
25.10.2014 09:20 2,1 C 97 % 1021,1 hPa 0,0 l/m 0,0 km/h (0 Bft) SO 135 1,7 C 2,8 C 0,0 km/h (0 Bft)
25.10.2014 09:25 2,7 C 96 % 1021,1 hPa 0,0 l/m 0,0 km/h (0 Bft) O 90 2,1 C 3,2 C 0,0 km/h (0 Bft)
25.10.2014 09:30 3,0 C 96 % 1021,1 hPa 0,0 l/m 0,0 km/h (0 Bft) SO 135 2,4 C 3,5 C 0,0 km/h (0 Bft)
25.10.2014 09:35 3,6 C 96 % 1021,1 hPa 0,0 l/m 0,0 km/h (0 Bft) SO 135 3,0 C 4,1 C 0,0 km/h (0 Bft)
25.10.2014 09:40 3,7 C 96 % 1021,4 hPa 0,0 l/m 0,0 km/h (0 Bft) SO 135 3,1 C 4,3 C 0,0 km/h (0 Bft)
25.10.2014 09:45 4,0 C 95 % 1021,4 hPa 0,0 l/m 0,0 km/h (0 Bft) O-NO 67 3,3 C 4,4 C 0,0 km/h (0 Bft)
25.10.2014 09:50 4,2 C 96 % 1021,4 hPa 0,0 l/m 0,0 km/h (0 Bft) SO 135 3,6 C 4,6 C 0,0 km/h (0 Bft)
25.10.2014 09:55 4,7 C 96 % 1021,4 hPa 0,0 l/m 0,0 km/h (0 Bft) SO 135 4,1 C 5,1 C 0,0 km/h (0 Bft)
25.10.2014 10:00 5,1 C 95 % 1021,4 hPa 0,0 l/m 0,0 km/h (0 Bft) N-NW 337 4,4 C 5,3 C 0,0 km/h (0 Bft)
25.10.2014 10:05 5,4 C 95 % 1021,4 hPa 0,0 l/m 0,0 km/h (0 Bft) O-NO 67 4,7 C 5,9 C 0,0 km/h (0 Bft)
25.10.2014 10:10 5,7 C 95 % 1021,4 hPa 0,0 l/m 0,0 km/h (0 Bft) O-NO 67 5,0 C 6,2 C 0,0 km/h (0 Bft)
25.10.2014 10:15 5,8 C 95 % 1021,4 hPa 0,0 l/m 0,0 km/h (0 Bft) O-NO 67 5,1 C 6,5 C 0,0 km/h (0 Bft)
25.10.2014 10:20 6,2 C 94 % 1021,5 hPa 0,0 l/m 0,2 km/h (0 Bft) W-NW 292 5,3 C 6,7 C 1,8 km/h (1 Bft)
25.10.2014 10:25 6,5 C 94 % 1021,5 hPa 0,0 l/m 1,0 km/h (0 Bft) N-NW 337 5,6 C 6,8 C 1,6 km/h (1 Bft)
25.10.2014 10:30 6,6 C 94 % 1021,5 hPa 0,0 l/m 1,1 km/h (1 Bft) W 270 5,7 C 7,0 C 0,0 km/h (0 Bft)
25.10.2014 10:35 6,9 C 94 % 1021,5 hPa 0,0 l/m 0,3 km/h (0 Bft) NW 315 6,0 C 7,4 C 1,9 km/h (1 Bft)
25.10.2014 10:40 6,9 C 94 % 1021,8 hPa 0,0 l/m 0,5 km/h (0 Bft) N-NO 22 6,0 C 7,7 C 1,9 km/h (1 Bft)
25.10.2014 10:45 6,9 C 93 % 1021,8 hPa 0,0 l/m 0,5 km/h (0 Bft) O-NO 67 5,8 C 7,9 C 0,0 km/h (0 Bft)
25.10.2014 10:50 7,2 C 92 % 1021,8 hPa 0,0 l/m 0,2 km/h (0 Bft) N-NW 337 6,0 C 8,2 C 0,0 km/h (0 Bft)
25.10.2014 10:55 7,5 C 92 % 1021,8 hPa 0,0 l/m 0,0 km/h (0 Bft) N-NW 337 6,3 C 8,5 C 0,0 km/h (0 Bft)
25.10.2014 11:00 7,9 C 92 % 1021,8 hPa 0,0 l/m 0,0 km/h (0 Bft) NW 315 6,7 C 8,6 C 0,0 km/h (0 Bft)
25.10.2014 11:03 7,8 C 90 % 1021,8 hPa 0,0 l/m 0,0 km/h (0 Bft) SO 135 6,3 C 9,0 C 0,0 km/h (0 Bft)
25.10.2014 11:05 7,8 C 90 % 1021,8 hPa 0,0 l/m 0,0 km/h (0 Bft) SO 135 6,3 C 9,0 C 0,0 km/h (0 Bft)
25.10.2014 11:10 7,8 C 90 % 1021,8 hPa 0,0 l/m 0,6 km/h (0 Bft) N-NO 22 6,3 C 9,2 C 2,7 km/h (1 Bft)
25.10.2014 11:15 8,1 C 90 % 1021,8 hPa 0,0 l/m 1,0 km/h (0 Bft) NW 315 6,6 C 9,3 C 0,0 km/h (0 Bft)
25.10.2014 11:20 8,4 C 90 % 1022,1 hPa 0,0 l/m 0,8 km/h (0 Bft) NW 315 6,9 C 9,5 C 0,0 km/h (0 Bft)
25.10.2014 11:25 8,0 C 89 % 1022,1 hPa 0,0 l/m 0,2 km/h (0 Bft) N-NO 22 6,3 C 9,6 C 0,0 km/h (0 Bft)
25.10.2014 11:30 8,2 C 89 % 1022,1 hPa 0,0 l/m 0,2 km/h (0 Bft) NW 315 6,5 C 9,6 C 1,6 km/h (1 Bft)
25.10.2014 11:35 8,4 C 89 % 1022,1 hPa 0,0 l/m 0,0 km/h (0 Bft) NW 315 6,7 C 9,6 C 0,0 km/h (0 Bft)
25.10.2014 11:40 8,6 C 89 % 1022,1 hPa 0,0 l/m 0,0 km/h (0 Bft) NW 315 6,9 C 9,6 C 0,0 km/h (0 Bft)
25.10.2014 11:45 8,3 C 90 % 1022,1 hPa 0,0 l/m 0,0 km/h (0 Bft) N-NO 22 6,8 C 9,6 C 0,0 km/h (0 Bft)
25.10.2014 11:50 8,3 C 89 % 1022,1 hPa 0,0 l/m 0,0 km/h (0 Bft) N-NW 337 6,6 C 9,5 C 0,0 km/h (0 Bft)
25.10.2014 11:55 8,4 C 89 % 1022,1 hPa 0,0 l/m 0,2 km/h (0 Bft) NO 45 6,7 C 9,5 C 0,0 km/h (0 Bft)
25.10.2014 12:00 8,6 C 88 % 1022,1 hPa 0,0 l/m 0,2 km/h (0 Bft) SO 135 6,7 C 9,8 C 0,0 km/h (0 Bft)
25.10.2014 12:05 9,4 C 88 % 1022,1 hPa 0,0 l/m 0,0 km/h (0 Bft) O 90 7,5 C 10,6 C 0,0 km/h (0 Bft)
25.10.2014 12:10 9,5 C 88 % 1022,1 hPa 0,0 l/m 0,2 km/h (0 Bft) N-NW 337 7,6 C 10,9 C 2,3 km/h (1 Bft)
25.10.2014 12:15 9,8 C 88 % 1022,1 hPa 0,0 l/m 0,2 km/h (0 Bft) N-NO 22 7,9 C 11,2 C 0,0 km/h (0 Bft)
25.10.2014 12:20 9,9 C 88 % 1021,7 hPa 0,0 l/m 0,2 km/h (0 Bft) N-NO 22 8,0 C 11,5 C 0,0 km/h (0 Bft)
25.10.2014 12:25 10,4 C 87 % 1021,7 hPa 0,0 l/m 0,5 km/h (0 Bft) N-NO 22 8,3 C 11,7 C 3,9 km/h (1 Bft)
25.10.2014 12:30 10,7 C 87 % 1021,7 hPa 0,0 l/m 1,4 km/h (1 Bft) N-NO 22 8,6 C 12,0 C 2,1 km/h (1 Bft)
25.10.2014 12:35 11,5 C 86 % 1021,7 hPa 0,0 l/m 1,6 km/h (1 Bft) N-NW 337 9,2 C 12,6 C 1,6 km/h (1 Bft)
25.10.2014 12:40 11,9 C 86 % 1022,2 hPa 0,0 l/m 0,6 km/h (0 Bft) N-NW 337 9,6 C 13,3 C 0,0 km/h (0 Bft)
25.10.2014 12:45 12,1 C 85 % 1022,2 hPa 0,0 l/m 0,0 km/h (0 Bft) W 270 9,7 C 13,7 C 0,0 km/h (0 Bft)
25.10.2014 12:50 12,3 C 86 % 1022,2 hPa 0,0 l/m 0,0 km/h (0 Bft) N-NO 22 10,0 C 14,1 C 0,0 km/h (0 Bft)
25.10.2014 12:55 13,7 C 84 % 1022,2 hPa 0,0 l/m 0,0 km/h (0 Bft) SW 225 11,0 C 15,3 C 0,0 km/h (0 Bft)
25.10.2014 13:00 13,3 C 80 % 1022,3 hPa 0,0 l/m 0,0 km/h (0 Bft) N-NO 22 9,9 C 16,3 C 0,0 km/h (0 Bft)
25.10.2014 13:05 12,8 C 78 % 1022,3 hPa 0,0 l/m 1,0 km/h (0 Bft) N-NW 337 9,1 C 15,8 C 4,7 km/h (1 Bft)
25.10.2014 13:10 13,0 C 78 % 1022,3 hPa 0,0 l/m 1,8 km/h (1 Bft) N-NO 22 9,3 C 15,2 C 4,8 km/h (1 Bft)
25.10.2014 13:15 13,1 C 77 % 1022,3 hPa 0,0 l/m 2,6 km/h (1 Bft) S-SW 202 9,2 C 14,8 C 5,5 km/h (1 Bft)
25.10.2014 13:20 13,0 C 75 % 1022,3 hPa 0,0 l/m 2,7 km/h (1 Bft) W-SW 247 8,7 C 14,6 C 2,3 km/h (1 Bft)
25.10.2014 13:25 13,3 C 77 % 1022,3 hPa 0,0 l/m 1,4 km/h (1 Bft) W-NW 292 9,4 C 15,0 C 0,0 km/h (0 Bft)
25.10.2014 13:30 13,3 C 79 % 1022,3 hPa 0,0 l/m 0,3 km/h (0 Bft) S-SW 202 9,7 C 15,1 C 0,0 km/h (0 Bft)
25.10.2014 13:35 13,4 C 76 % 1022,3 hPa 0,0 l/m 0,3 km/h (0 Bft) NW 315 9,3 C 15,1 C 0,0 km/h (0 Bft)
25.10.2014 13:40 13,1 C 76 % 1022,2 hPa 0,0 l/m 0,6 km/h (0 Bft) NW 315 9,0 C 15,0 C 3,7 km/h (1 Bft)
25.10.2014 13:45 12,6 C 74 % 1022,2 hPa 0,0 l/m 1,0 km/h (0 Bft) W 270 8,1 C 14,5 C 0,0 km/h (0 Bft)
25.10.2014 13:50 12,6 C 75 % 1022,2 hPa 0,0 l/m 1,8 km/h (1 Bft) W-NW 292 8,3 C 14,2 C 2,9 km/h (1 Bft)
25.10.2014 13:55 12,2 C 73 % 1022,2 hPa 0,0 l/m 2,6 km/h (1 Bft) NW 315 7,5 C 13,3 C 6,1 km/h (2 Bft)
25.10.2014 14:00 11,9 C 71 % 1022,3 hPa 0,0 l/m 3,2 km/h (1 Bft) NW 315 6,8 C 13,0 C 3,5 km/h (1 Bft)
25.10.2014 14:03 11,7 C 69 % 1022,3 hPa 0,0 l/m 2,9 km/h (1 Bft) NW 315 6,2 C 12,6 C 6,4 km/h (2 Bft)
25.10.2014 14:05 11,7 C 69 % 1022,3 hPa 0,0 l/m 2,9 km/h (1 Bft) NW 315 6,2 C 12,6 C 3,1 km/h (1 Bft)
25.10.2014 14:10 11,6 C 66 % 1022,3 hPa 0,0 l/m 2,4 km/h (1 Bft) NW 315 5,5 C 12,4 C 1,8 km/h (1 Bft)
25.10.2014 14:15 11,8 C 67 % 1022,3 hPa 0,0 l/m 1,9 km/h (1 Bft) W 270 5,9 C 12,4 C 2,1 km/h (1 Bft)
25.10.2014 14:20 11,8 C 69 % 1022,2 hPa 0,0 l/m 2,3 km/h (1 Bft) W-NW 292 6,3 C 12,3 C 3,2 km/h (1 Bft)
25.10.2014 14:25 11,5 C 62 % 1022,2 hPa 0,0 l/m 2,9 km/h (1 Bft) W 270 4,5 C 12,1 C 2,9 km/h (1 Bft)
25.10.2014 14:30 11,3 C 62 % 1022,2 hPa 0,0 l/m 2,9 km/h (1 Bft) NW 315 4,3 C 12,0 C 2,3 km/h (1 Bft)
25.10.2014 14:35 11,2 C 66 % 1022,2 hPa 0,0 l/m 2,1 km/h (1 Bft) W-NW 292 5,1 C 11,7 C 0,0 km/h (0 Bft)
25.10.2014 14:40 11,1 C 66 % 1022,3 hPa 0,0 l/m 1,9 km/h (1 Bft) NW 315 5,0 C 11,7 C 2,3 km/h (1 Bft)
25.10.2014 14:45 10,9 C 67 % 1022,3 hPa 0,0 l/m 1,8 km/h (1 Bft) W-SW 247 5,0 C 11,4 C 3,9 km/h (1 Bft)
25.10.2014 14:50 10,8 C 67 % 1022,3 hPa 0,0 l/m 2,1 km/h (1 Bft) W 270 4,9 C 11,3 C 0,0 km/h (0 Bft)
25.10.2014 14:55 10,6 C 67 % 1022,3 hPa 0,0 l/m 1,4 km/h (1 Bft) NW 315 4,7 C 11,1 C 1,9 km/h (1 Bft)
25.10.2014 15:00 10,6 C 68 % 1022,8 hPa 0,0 l/m 0,5 km/h (0 Bft) NW 315 4,9 C 11,0 C 0,0 km/h (0 Bft)
25.10.2014 15:05 10,4 C 69 % 1022,8 hPa 0,0 l/m 0,6 km/h (0 Bft) NW 315 5,0 C 10,6 C 0,0 km/h (0 Bft)
25.10.2014 15:10 10,2 C 69 % 1022,8 hPa 0,0 l/m 0,3 km/h (0 Bft) NW 315 4,8 C 10,4 C 0,0 km/h (0 Bft)
25.10.2014 15:15 10,1 C 70 % 1022,8 hPa 0,0 l/m 0,0 km/h (0 Bft) NW 315 4,9 C 10,1 C 0,0 km/h (0 Bft)
25.10.2014 15:20 10,0 C 71 % 1022,3 hPa 0,0 l/m 0,0 km/h (0 Bft) S-SW 202 5,0 C 9,7 C 0,0 km/h (0 Bft)
25.10.2014 15:25 9,7 C 73 % 1022,3 hPa 0,0 l/m 0,0 km/h (0 Bft) NW 315 5,1 C 9,0 C 0,0 km/h (0 Bft)
25.10.2014 15:30 9,5 C 73 % 1022,3 hPa 0,0 l/m 0,5 km/h (0 Bft) NW 315 4,9 C 8,6 C 0,0 km/h (0 Bft)
25.10.2014 15:35 9,1 C 75 % 1022,3 hPa 0,0 l/m 0,5 km/h (0 Bft) W 270 4,9 C 8,1 C 0,0 km/h (0 Bft)
25.10.2014 15:40 8,9 C 76 % 1022,4 hPa 0,0 l/m 0,2 km/h (0 Bft) NW 315 4,9 C 8,0 C 0,0 km/h (0 Bft)
25.10.2014 15:45 8,6 C 79 % 1022,4 hPa 0,0 l/m 0,0 km/h (0 Bft) W 270 5,2 C 8,0 C 0,0 km/h (0 Bft)
25.10.2014 15:50 8,7 C 80 % 1022,4 hPa 0,0 l/m 0,0 km/h (0 Bft) W 270 5,4 C 8,1 C 0,0 km/h (0 Bft)
25.10.2014 15:55 8,5 C 85 % 1022,4 hPa 0,0 l/m 0,0 km/h (0 Bft) S-SW 202 6,1 C 8,3 C 0,0 km/h (0 Bft)
25.10.2014 16:00 8,4 C 86 % 1022,6 hPa 0,0 l/m 0,0 km/h (0 Bft) S 180 6,2 C 8,3 C 0,0 km/h (0 Bft)
25.10.2014 16:05 8,3 C 88 % 1022,6 hPa 0,0 l/m 0,0 km/h (0 Bft) S-SO 157 6,4 C 8,2 C 0,0 km/h (0 Bft)
25.10.2014 16:10 8,2 C 88 % 1022,6 hPa 0,0 l/m 0,0 km/h (0 Bft) S-SO 157 6,3 C 8,2 C 0,0 km/h (0 Bft)
25.10.2014 16:15 8,3 C 89 % 1022,6 hPa 0,0 l/m 0,0 km/h (0 Bft) S-SO 157 6,6 C 8,3 C 0,0 km/h (0 Bft)
25.10.2014 16:20 8,3 C 90 % 1022,6 hPa 0,0 l/m 0,0 km/h (0 Bft) S-SO 157 6,8 C 8,3 C 0,0 km/h (0 Bft)
25.10.2014 16:25 8,3 C 90 % 1022,6 hPa 0,0 l/m 0,0 km/h (0 Bft) SO 135 6,8 C 8,3 C 0,0 km/h (0 Bft)
25.10.2014 16:30 8,4 C 91 % 1022,6 hPa 0,0 l/m 0,0 km/h (0 Bft) S-SO 157 7,0 C 8,3 C 0,0 km/h (0 Bft)
25.10.2014 16:35 8,6 C 91 % 1022,6 hPa 0,0 l/m 0,2 km/h (0 Bft) O-SO 112 7,2 C 8,3 C 0,0 km/h (0 Bft)
25.10.2014 16:40 8,5 C 91 % 1022,8 hPa 0,0 l/m 0,6 km/h (0 Bft) SO 135 7,1 C 8,3 C 1,9 km/h (1 Bft)
25.10.2014 16:45 8,6 C 91 % 1022,8 hPa 0,0 l/m 0,5 km/h (0 Bft) SW 225 7,2 C 8,3 C 0,0 km/h (0 Bft)
25.10.2014 16:50 8,5 C 91 % 1022,8 hPa 0,0 l/m 0,5 km/h (0 Bft) S-SO 157 7,1 C 8,4 C 0,0 km/h (0 Bft)
25.10.2014 16:55 8,4 C 91 % 1022,8 hPa 0,0 l/m 0,6 km/h (0 Bft) O-SO 112 7,0 C 8,3 C 1,8 km/h (1 Bft)
25.10.2014 17:00 8,4 C 91 % 1022,8 hPa 0,0 l/m 0,6 km/h (0 Bft) S-SO 157 7,0 C 8,2 C 0,0 km/h (0 Bft)
25.10.2014 17:03 8,2 C 91 % 1022,8 hPa 0,0 l/m 0,3 km/h (0 Bft) O-SO 112 6,8 C 8,2 C 0,0 km/h (0 Bft)
25.10.2014 17:05 8,2 C 91 % 1022,8 hPa 0,0 l/m 0,3 km/h (0 Bft) O-SO 112 6,8 C 8,2 C 0,0 km/h (0 Bft)
25.10.2014 17:10 8,1 C 91 % 1022,8 hPa 0,0 l/m 0,0 km/h (0 Bft) S-SO 157 6,7 C 8,2 C 0,0 km/h (0 Bft)
25.10.2014 17:15 8,0 C 91 % 1022,8 hPa 0,0 l/m 0,0 km/h (0 Bft) SO 135 6,6 C 8,0 C 0,0 km/h (0 Bft)
25.10.2014 17:20 7,8 C 92 % 1022,9 hPa 0,0 l/m 0,2 km/h (0 Bft) S-SO 157 6,6 C 7,9 C 1,9 km/h (1 Bft)
25.10.2014 17:25 7,8 C 92 % 1022,9 hPa 0,0 l/m 0,2 km/h (0 Bft) SO 135 6,6 C 7,7 C 0,0 km/h (0 Bft)
25.10.2014 17:30 7,8 C 92 % 1022,9 hPa 0,0 l/m 0,2 km/h (0 Bft) S 180 6,6 C 7,7 C 0,0 km/h (0 Bft)
25.10.2014 17:35 7,7 C 92 % 1022,9 hPa 0,0 l/m 0,2 km/h (0 Bft) S 180 6,5 C 7,7 C 0,0 km/h (0 Bft)
25.10.2014 17:40 7,7 C 92 % 1023,4 hPa 0,0 l/m 0,0 km/h (0 Bft) O 90 6,5 C 7,7 C 0,0 km/h (0 Bft)
25.10.2014 17:45 7,6 C 93 % 1023,4 hPa 0,0 l/m 0,0 km/h (0 Bft) SO 135 6,5 C 7,5 C 0,0 km/h (0 Bft)
25.10.2014 17:50 7,5 C 93 % 1023,4 hPa 0,0 l/m 0,0 km/h (0 Bft) S-SO 157 6,4 C 7,4 C 0,0 km/h (0 Bft)
25.10.2014 17:55 7,4 C 93 % 1023,4 hPa 0,0 l/m 0,0 km/h (0 Bft) S-SO 157 6,3 C 7,4 C 0,0 km/h (0 Bft)
25.10.2014 18:00 7,4 C 93 % 1022,9 hPa 0,0 l/m 0,0 km/h (0 Bft) O-NO 67 6,3 C 7,4 C 0,0 km/h (0 Bft)
25.10.2014 18:05 7,4 C 93 % 1022,9 hPa 0,0 l/m 0,2 km/h (0 Bft) O-NO 67 6,3 C 7,3 C 0,0 km/h (0 Bft)
25.10.2014 18:10 7,3 C 93 % 1022,9 hPa 0,0 l/m 0,6 km/h (0 Bft) W 270 6,2 C 7,3 C 0,0 km/h (0 Bft)
25.10.2014 18:15 7,2 C 93 % 1022,9 hPa 0,0 l/m 1,0 km/h (0 Bft) SO 135 6,1 C 7,2 C 0,0 km/h (0 Bft)
25.10.2014 18:20 7,2 C 93 % 1023,1 hPa 0,0 l/m 0,6 km/h (0 Bft) O 90 6,1 C 7,1 C 0,0 km/h (0 Bft)
25.10.2014 18:25 7,1 C 93 % 1023,1 hPa 0,0 l/m 0,5 km/h (0 Bft) NO 45 6,0 C 7,1 C 0,0 km/h (0 Bft)
25.10.2014 18:30 7,1 C 94 % 1023,1 hPa 0,0 l/m 0,3 km/h (0 Bft) O 90 6,2 C 7,0 C 0,0 km/h (0 Bft)
25.10.2014 18:35 7,0 C 94 % 1023,1 hPa 0,0 l/m 0,8 km/h (0 Bft) O-NO 67 6,1 C 6,9 C 2,4 km/h (1 Bft)
25.10.2014 18:40 7,1 C 94 % 1023,2 hPa 0,0 l/m 0,8 km/h (0 Bft) NW 315 6,2 C 6,9 C 0,0 km/h (0 Bft)
25.10.2014 18:45 7,0 C 94 % 1023,2 hPa 0,0 l/m 0,2 km/h (0 Bft) O 90 6,1 C 6,9 C 0,0 km/h (0 Bft)
25.10.2014 18:50 7,0 C 94 % 1023,2 hPa 0,0 l/m 0,0 km/h (0 Bft) O-SO 112 6,1 C 6,9 C 0,0 km/h (0 Bft)
25.10.2014 18:55 7,0 C 94 % 1023,2 hPa 0,0 l/m 0,0 km/h (0 Bft) S-SO 157 6,1 C 6,9 C 0,0 km/h (0 Bft)
25.10.2014 19:00 7,0 C 94 % 1023,4 hPa 0,0 l/m 0,0 km/h (0 Bft) SO 135 6,1 C 6,9 C 0,0 km/h (0 Bft)
25.10.2014 19:05 7,0 C 94 % 1023,4 hPa 0,0 l/m 0,0 km/h (0 Bft) S-SO 157 6,1 C 6,9 C 0,0 km/h (0 Bft)
25.10.2014 19:10 7,0 C 94 % 1023,4 hPa 0,0 l/m 0,0 km/h (0 Bft) SO 135 6,1 C 6,9 C 0,0 km/h (0 Bft)
25.10.2014 19:15 7,0 C 94 % 1023,4 hPa 0,0 l/m 0,0 km/h (0 Bft) SO 135 6,1 C 6,8 C 0,0 km/h (0 Bft)
25.10.2014 19:20 7,0 C 94 % 1023,6 hPa 0,0 l/m 0,0 km/h (0 Bft) W 270 6,1 C 6,8 C 0,0 km/h (0 Bft)
25.10.2014 19:25 6,9 C 95 % 1023,6 hPa 0,0 l/m 0,0 km/h (0 Bft) W 270 6,2 C 6,8 C 0,0 km/h (0 Bft)
25.10.2014 19:30 6,9 C 95 % 1023,6 hPa 0,0 l/m 0,0 km/h (0 Bft) W 270 6,2 C 6,8 C 0,0 km/h (0 Bft)
25.10.2014 19:35 6,9 C 95 % 1023,6 hPa 0,0 l/m 0,0 km/h (0 Bft) SW 225 6,2 C 6,8 C 0,0 km/h (0 Bft)
25.10.2014 19:40 6,9 C 95 % 1023,6 hPa 0,0 l/m 0,0 km/h (0 Bft) W 270 6,2 C 6,8 C 0,0 km/h (0 Bft)
25.10.2014 19:45 6,9 C 95 % 1023,6 hPa 0,0 l/m 0,0 km/h (0 Bft) SW 225 6,2 C 6,8 C 0,0 km/h (0 Bft)
25.10.2014 19:50 6,9 C 95 % 1023,6 hPa 0,0 l/m 0,0 km/h (0 Bft) W 270 6,2 C 6,8 C 0,0 km/h (0 Bft)
25.10.2014 19:55 6,8 C 95 % 1023,6 hPa 0,0 l/m 0,0 km/h (0 Bft) W 270 6,1 C 6,7 C 0,0 km/h (0 Bft)
25.10.2014 20:00 6,8 C 95 % 1023,8 hPa 0,0 l/m 0,0 km/h (0 Bft) W-SW 247 6,1 C 6,7 C 0,0 km/h (0 Bft)
25.10.2014 20:03 6,8 C 95 % 1023,8 hPa 0,0 l/m 0,0 km/h (0 Bft) W 270 6,1 C 6,7 C 0,0 km/h (0 Bft)
25.10.2014 20:10 6,7 C 95 % 1023,8 hPa 0,0 l/m 0,0 km/h (0 Bft) W-NW 292 6,0 C 6,6 C 0,0 km/h (0 Bft)
25.10.2014 20:15 6,7 C 95 % 1023,8 hPa 0,0 l/m 0,0 km/h (0 Bft) W 270 6,0 C 6,6 C 0,0 km/h (0 Bft)
25.10.2014 20:20 6,7 C 95 % 1024,0 hPa 0,0 l/m 0,0 km/h (0 Bft) W-NW 292 6,0 C 6,6 C 0,0 km/h (0 Bft)
25.10.2014 20:25 6,7 C 95 % 1024,0 hPa 0,0 l/m 0,0 km/h (0 Bft) S 180 6,0 C 6,6 C 0,0 km/h (0 Bft)
25.10.2014 20:30 6,7 C 95 % 1024,0 hPa 0,0 l/m 0,0 km/h (0 Bft) W-SW 247 6,0 C 6,6 C 0,0 km/h (0 Bft)
25.10.2014 20:35 6,6 C 95 % 1024,0 hPa 0,0 l/m 0,5 km/h (0 Bft) S 180 5,9 C 6,5 C 0,0 km/h (0 Bft)
25.10.2014 20:40 6,6 C 95 % 1023,9 hPa 0,0 l/m 0,5 km/h (0 Bft) W-SW 247 5,9 C 6,5 C 0,0 km/h (0 Bft)
25.10.2014 20:45 6,6 C 95 % 1023,9 hPa 0,0 l/m 0,2 km/h (0 Bft) W-SW 247 5,9 C 6,5 C 0,0 km/h (0 Bft)
25.10.2014 20:50 6,5 C 95 % 1023,9 hPa 0,0 l/m 0,2 km/h (0 Bft) W-SW 247 5,8 C 6,5 C 0,0 km/h (0 Bft)
25.10.2014 20:55 6,5 C 95 % 1023,9 hPa 0,0 l/m 0,0 km/h (0 Bft) SW 225 5,8 C 6,4 C 0,0 km/h (0 Bft)
25.10.2014 21:00 6,5 C 95 % 1024,1 hPa 0,0 l/m 0,0 km/h (0 Bft) W 270 5,8 C 6,4 C 0,0 km/h (0 Bft)
25.10.2014 21:05 6,5 C 95 % 1024,1 hPa 0,0 l/m 0,0 km/h (0 Bft) NW 315 5,8 C 6,4 C 0,0 km/h (0 Bft)
25.10.2014 21:10 6,5 C 95 % 1024,1 hPa 0,0 l/m 0,0 km/h (0 Bft) W 270 5,8 C 6,4 C 0,0 km/h (0 Bft)
25.10.2014 21:15 6,4 C 95 % 1024,1 hPa 0,0 l/m 0,0 km/h (0 Bft) W 270 5,7 C 6,2 C 0,0 km/h (0 Bft)
25.10.2014 21:20 6,3 C 95 % 1024,1 hPa 0,0 l/m 0,0 km/h (0 Bft) N-NO 22 5,6 C 6,2 C 0,0 km/h (0 Bft)
25.10.2014 21:25 6,2 C 95 % 1024,1 hPa 0,0 l/m 0,0 km/h (0 Bft) NW 315 5,5 C 6,2 C 0,0 km/h (0 Bft)
25.10.2014 21:30 6,2 C 95 % 1024,1 hPa 0,0 l/m 0,0 km/h (0 Bft) W 270 5,5 C 6,2 C 0,0 km/h (0 Bft)
25.10.2014 21:35 6,2 C 95 % 1024,1 hPa 0,0 l/m 0,0 km/h (0 Bft) SW 225 5,5 C 6,1 C 0,0 km/h (0 Bft)
25.10.2014 21:40 6,2 C 95 % 1024,1 hPa 0,0 l/m 0,0 km/h (0 Bft) SW 225 5,5 C 6,1 C 0,0 km/h (0 Bft)
25.10.2014 21:45 6,2 C 95 % 1024,1 hPa 0,0 l/m 0,0 km/h (0 Bft) O-SO 112 5,5 C 6,1 C 0,0 km/h (0 Bft)
25.10.2014 21:50 6,2 C 95 % 1024,1 hPa 0,0 l/m 0,2 km/h (0 Bft) N-NW 337 5,5 C 6,1 C 0,0 km/h (0 Bft)
25.10.2014 21:55 6,3 C 95 % 1024,1 hPa 0,0 l/m 0,6 km/h (0 Bft) W-NW 292 5,6 C 6,1 C 1,9 km/h (1 Bft)
25.10.2014 22:00 6,3 C 95 % 1024,5 hPa 0,0 l/m 0,5 km/h (0 Bft) W-SW 247 5,6 C 6,1 C 0,0 km/h (0 Bft)
25.10.2014 22:05 6,2 C 95 % 1024,5 hPa 0,0 l/m 0,2 km/h (0 Bft) NW 315 5,5 C 6,1 C 0,0 km/h (0 Bft)
25.10.2014 22:10 6,3 C 95 % 1024,5 hPa 0,0 l/m 0,3 km/h (0 Bft) N-NW 337 5,6 C 6,1 C 1,8 km/h (1 Bft)
25.10.2014 22:15 6,2 C 95 % 1024,5 hPa 0,0 l/m 0,6 km/h (0 Bft) W-NW 292 5,5 C 6,1 C 0,0 km/h (0 Bft)
25.10.2014 22:20 6,3 C 95 % 1024,4 hPa 0,0 l/m 0,5 km/h (0 Bft) W-NW 292 5,6 C 6,1 C 0,0 km/h (0 Bft)
25.10.2014 22:25 6,3 C 95 % 1024,4 hPa 0,0 l/m 0,2 km/h (0 Bft) O-SO 112 5,6 C 6,1 C 2,6 km/h (1 Bft)
25.10.2014 22:30 6,3 C 95 % 1024,4 hPa 0,0 l/m 0,3 km/h (0 Bft) W-NW 292 5,6 C 6,2 C 2,4 km/h (1 Bft)
25.10.2014 22:35 6,3 C 95 % 1024,4 hPa 0,0 l/m 0,8 km/h (0 Bft) W-NW 292 5,6 C 6,2 C 3,1 km/h (1 Bft)
25.10.2014 22:40 6,3 C 95 % 1024,4 hPa 0,0 l/m 0,6 km/h (0 Bft) SO 135 5,6 C 6,2 C 0,0 km/h (0 Bft)
25.10.2014 22:45 6,2 C 95 % 1024,4 hPa 0,0 l/m 0,3 km/h (0 Bft) S-SW 202 5,5 C 6,1 C 1,8 km/h (1 Bft)
25.10.2014 22:50 6,2 C 95 % 1024,4 hPa 0,0 l/m 0,3 km/h (0 Bft) O 90 5,5 C 6,1 C 0,0 km/h (0 Bft)
25.10.2014 22:55 6,1 C 95 % 1024,4 hPa 0,0 l/m 0,5 km/h (0 Bft) W 270 5,4 C 6,0 C 0,0 km/h (0 Bft)
25.10.2014 22:58 6,1 C 95 % 1024,5 hPa 0,0 l/m 0,6 km/h (0 Bft) S 180 5,4 C 6,0 C 2,4 km/h (1 Bft)
25.10.2014 23:00 6,1 C 95 % 1024,5 hPa 0,0 l/m 0,6 km/h (0 Bft) S 180 5,4 C 6,0 C 2,4 km/h (1 Bft)
25.10.2014 23:05 6,1 C 95 % 1024,5 hPa 0,0 l/m 1,0 km/h (0 Bft) S-SO 157 5,4 C 6,0 C 0,0 km/h (0 Bft)
25.10.2014 23:10 6,1 C 95 % 1024,5 hPa 0,0 l/m 0,8 km/h (0 Bft) SO 135 5,4 C 5,9 C 0,0 km/h (0 Bft)
25.10.2014 23:15 6,0 C 95 % 1024,5 hPa 0,0 l/m 0,0 km/h (0 Bft) S 180 5,3 C 5,9 C 0,0 km/h (0 Bft)
25.10.2014 23:20 6,0 C 95 % 1024,6 hPa 0,0 l/m 0,0 km/h (0 Bft) S-SO 157 5,3 C 5,9 C 0,0 km/h (0 Bft)
25.10.2014 23:25 6,0 C 96 % 1024,6 hPa 0,0 l/m 0,2 km/h (0 Bft) NW 315 5,4 C 5,9 C 0,0 km/h (0 Bft)
25.10.2014 23:30 6,0 C 96 % 1024,6 hPa 0,0 l/m 0,6 km/h (0 Bft) W 270 5,4 C 5,9 C 1,6 km/h (1 Bft)
25.10.2014 23:35 6,0 C 96 % 1024,6 hPa 0,0 l/m 1,0 km/h (0 Bft) NW 315 5,4 C 5,9 C 2,3 km/h (1 Bft)
25.10.2014 23:40 6,0 C 96 % 1024,6 hPa 0,0 l/m 1,0 km/h (0 Bft) W-NW 292 5,4 C 5,9 C 0,0 km/h (0 Bft)
25.10.2014 23:45 5,9 C 96 % 1024,6 hPa 0,0 l/m 0,3 km/h (0 Bft) W-NW 292 5,3 C 5,9 C 0,0 km/h (0 Bft)
25.10.2014 23:50 5,9 C 96 % 1024,6 hPa 0,0 l/m 0,0 km/h (0 Bft) W-SW 247 5,3 C 5,8 C 0,0 km/h (0 Bft)
25.10.2014 23:55 5,9 C 96 % 1024,6 hPa 0,0 l/m 0,0 km/h (0 Bft) W 270 5,3 C 5,8 C 0,0 km/h (0 Bft)
_ Min-Zeit 07:25 14:30 05:55 - 23:55 - - 04:55 03:55 23:55
Minimum _ -1,0 C 62 % 1020,0 hPa - 0,0 km/h (0 Bft) - - -1,5 C -2,0 C 0,0 km/h (0 Bft)
_ Max-Zeit 12:55 09:20 23:55 23:55 14:00 - - 12:55 13:00 14:03
Maximum _ 13,7 C 97 % 1024,6 hPa 0,0 l/m 3,2 km/h
NW (1 Bft)
- - 11,0 C 16,3 C 6,4 km/h
NW (2 Bft)
Durchschnitt _ 4,8 C 91 % 1022,0 hPa #0,0 l/m 0,3 km/h (0 Bft) NW - 3,4 C 4,7 C 0,4 km/h (0 Bft)